Regional Weather Roundup
Issued by NWS

Home | Current Version | Previous Version | Graphics & Text | Print | Product List | Glossary On
Versions: 1 2 3 4 5 6 7 8 9 10 11 12 13 14 15 16 17 18 19 20 21 22 23 24 25 26 27 28 29 30 31 32 33 34 35 36 37 38 39 40 41 42 43 44 45 46 47 48 49 50
000
ASUS43 KFSD 060310
RWRSD

WEATHER ROUNDUP FOR SOUTH DAKOTA
NATIONAL WEATHER SERVICE SIOUX FALLS SD
1000 PM CDT SUN JUL 05 2015

NOTE: "FAIR" INDICATES FEW OR NO CLOUDS BELOW 12,000 FEET WITH NO
SIGNIFICANT WEATHER AND/OR OBSTRUCTIONS TO VISIBILITY.


SDZ001>005-009-010-012>017-060400-
NORTHWEST AND NORTH CENTRAL SOUTH DAKOTA

CITY           SKY/WX    TMP DP  RH WIND       PRES   REMARKS
BUFFALO          N/A     62  55  77 N9        30.00S
FAITH            N/A     63  60  90 N14       29.99R
MOBRIDGE       LGT RAIN  68  66  93 N15       29.88F FOG
$$

SDZ012>016-024>037-041>051-057-063-072>074-060400-
SOUTHWEST AND SOUTH CENTRAL SOUTH DAKOTA

CITY           SKY/WX    TMP DP  RH WIND       PRES   REMARKS
RAPID CTY ARPT RAIN      63  61  93 N15       30.03S FOG
PIERRE         LGT RAIN  69  65  86 N21       29.87R
CUSTER         LGT RAIN  57  54  89 N8        30.10R FOG
ELLSWORTH AFB  LGT RAIN  63  63 100 N18G26    30.03R
PHILIP         LGT RAIN  66  64  93 NE13      29.96R
PINE RIDGE     HVY RAIN  62  61  96 N10       30.00R FOG
SPEARFISH      MOCLDY    57  57 100 NW10      30.12S FOG
WINNER         TSTM      69  66  90 N38G53    29.80S
$$

SDZ004>011-016>023-039-040-060400-
NORTHEAST SOUTH DAKOTA

CITY           SKY/WX    TMP DP  RH WIND       PRES   REMARKS
ABERDEEN       CLOUDY    74  64  71 N17G25    29.86R
WATERTOWN      TSTM      70  65  84 E3        29.87R
BROOKINGS      CLOUDY    79  72  78 S6        29.82R
SISSETON         N/A     75  66  73 W3        29.85R
$$

SDZ017-020-022-023-036>040-048>070-060400-
SOUTHEAST SOUTH DAKOTA

CITY           SKY/WX    TMP DP  RH WIND       PRES   REMARKS
SIOUX FALLS    CLOUDY    81  73  76 SE12      29.76R
HURON          CLOUDY    71  69  93 NE18      29.80R
CHAMBERLAIN    LGT RAIN  73  67  81 N23G30    29.81R
MITCHELL       CLOUDY    81  75  82 SE5       29.75R
YANKTON        CLOUDY    81  73  78 E5        29.73R
$$

ABBREVIATIONS USED IN REMARKS
   TC - TEMPERATURE IN CELSIUS
  WCI - WIND CHILL INDEX
   HX - HEAT INDEX
  VSB - VISIBILITY




USA.gov is the U.S. government's official web portal to all federal, state and local government web resources and services.